This demonstration page uses our WeatherBlox Daily Observations layout. Learn more.

Left ArrowRight Arrow

34.02893, -84.19858

Hourly Observations for July 25, 2021

Temp ( °F °C ) Dew Point ( °F °C ) Humidity (%) Winds ( mph kmh ) Pressure ( in mb ) Visibility ( mi km ) Precip ( " mm )
12:53 am 00:53 Mostly Cloudy 78 25.6 74 23.3 87 87 S 5 7 30.00 1016 7 11 0.00 0.00
1:53 am 01:53 Clear 77 25 72 22.2 85 85 S 3 6 30.00 1016 7 11 0.00 0.00
2:53 am 02:53 Cloudy 76 24.4 73 22.8 91 91 Calm 30.01 1016 7 11 0.00 0.00
3:53 am 03:53 Cloudy 76 24.4 73 22.8 91 91 SE 3 6 30.00 1016 7 11 0.00 0.00
4:53 am 04:53 Mostly Cloudy with Mist and Fog 75 23.9 72 22.2 90 90 SSE 3 6 29.99 1016 6 10 0.00 0.00
5:53 am 05:53 Mostly Cloudy with Mist and Fog 74 23.3 72 22.2 94 94 Calm 29.99 1016 6 10 0.00 0.00
6:53 am 06:53 Mostly Cloudy with Mist and Fog 75 23.9 72 22.2 90 90 Calm 30.01 1016 5 8 0.00 0.00
7:53 am 07:53 Partly Cloudy with Mist and Fog 75 23.9 73 22.8 94 94 Calm 30.01 1016 4 6 0.00 0.00
8:53 am 08:53 Hazy 78 25.6 73 22.8 85 85 S 3 6 30.01 1016 5 8 0.00 0.00
9:53 am 09:53 Mostly Cloudy with Haze 81 27.2 73 22.8 77 77 W 8 13 30.01 1016 6 10 0.00 0.00
10:53 am 10:53 Mostly Sunny 83 28.3 73 22.8 72 72 W 7 11 30.01 1016 7 11 0.00 0.00
11:53 am 11:53 Partly Cloudy 84 28.9 73 22.8 70 70 WNW 6 9 30.01 1016 7 11 0.00 0.00
12:53 pm 12:53 Partly Cloudy 86 30 72 22.2 63 63 WNW 5 7 29.99 1016 7 11 0.00 0.00
1:53 pm 13:53 Mostly Cloudy 87 30.6 72 22.2 61 61 Calm 29.98 1015 7 11 0.00 0.00
2:53 pm 14:53 Partly Cloudy 89 31.7 71 21.7 55 55 WNW 8 13 29.96 1014 8 13 0.00 0.00
3:53 pm 15:53 Sunny 90 32.2 71 21.7 54 54 Calm 29.93 1014 8 13 0.00 0.00
4:53 pm 16:53 Mostly Sunny 88 31.1 73 22.8 61 61 SSE 5 7 29.92 1013 8 13 0.00 0.00
5:53 pm 17:53 Mostly Cloudy 87 30.6 73 22.8 63 63 VRB 3 6 29.91 1013 8 13 0.00 0.00
6:45 pm 18:45 Mostly Cloudy with Nearby Thunderstorms 82 27.8 72 22.2 72 72 ESE 7 11 29.93 1013 9 14 0.00 0.00
6:53 pm 18:53 Cloudy with Nearby Thunderstorms 83 28.3 73 22.8 72 72 SE 7 11 29.91 1013 9 14 0.00 0.00
7:00 pm 19:00 Cloudy 82 27.8 72 22.2 72 72 undefined N/A 29.92 1013 9 14 0.00 0.00
7:53 pm 19:53 Sunny 82 27.8 74 23.3 77 77 WSW 3 6 29.92 1013 8 13 0.00 0.00
8:53 pm 20:53 Cloudy 81 27.2 74 23.3 79 79 WSW 5 7 29.94 1014 8 13 0.00 0.00
9:27 pm 21:27 Cloudy with Light Rain 77 25 76 24.4 96 96 Calm 29.96 1014 4 6 0.10 2.54
9:53 pm 21:53 Mostly Cloudy with Mist and Fog 77 25 76 24.4 96 96 ESE 3 6 29.94 1014 4 6 0.10 2.54
10:53 pm 22:53 Clear with Mist and Fog 77 25 76 24.4 96 96 Calm 29.96 1015 4 6 0.00 0.00
11:26 pm 23:26 Clear with Mist and Fog 76 24.4 76 24.4 100 100 Calm 29.98 1015 3 4 0.00 0.00
11:35 pm 23:35 Clear with Mist and Fog 77 25 76 24.4 96 96 Calm 29.98 1015 3 5 0.00 0.00
11:53 pm 23:53 Clear with Mist and Fog 76 24.4 76 24.4 100 100 S 3 6 29.96 1014 4 6 0.00 0.00

Powered by AerisWeather